Satellite-Ground Cal/Val Region Overpasses Predictions

Prediction of Satellite NPP Overpassing Cal/Val Region: PacNW

Region Location: (Latitude: 10.00, Longitude: 139.50) to (Latitude: 22.70, Longitude: 165.60).

Table of predicted overpasses for the next 14.0 days since TLE Epoch: 3/30/2014
Interval Starting Time Starting Location Ending Time Ending Location
1 03/30/2014 14:56:38 ( 22.68, 161.83) 03/30/2014 15:00:14 ( 10.00, 158.80)
2 03/31/2014 03:47:15 ( 10.05, 143.93) 03/31/2014 03:50:50 ( 22.67, 140.92)
3 03/31/2014 14:38:47 ( 18.70, 165.60) 03/31/2014 14:41:15 ( 10.00, 163.55)
4 03/31/2014 16:19:09 ( 22.69, 141.21) 03/31/2014 16:21:08 ( 15.71, 139.51)
5 04/01/2014 03:28:16 ( 10.05, 148.69) 04/01/2014 03:31:51 ( 22.67, 145.67)
6 04/01/2014 16:00:09 ( 22.69, 145.96) 04/01/2014 16:03:45 ( 10.01, 142.93)
7 04/02/2014 03:09:16 ( 10.05, 153.44) 04/02/2014 03:12:51 ( 22.67, 150.43)
8 04/02/2014 15:41:10 ( 22.69, 150.72) 04/02/2014 15:44:46 ( 10.01, 147.69)
9 04/03/2014 02:50:17 ( 10.05, 158.20) 04/03/2014 02:53:52 ( 22.67, 155.18)
10 04/03/2014 15:22:10 ( 22.69, 155.47) 04/03/2014 15:25:46 ( 10.01, 152.44)
11 04/04/2014 02:31:17 ( 10.05, 162.95) 04/04/2014 02:34:52 ( 22.67, 159.93)
12 04/04/2014 15:03:11 ( 22.69, 160.22) 04/04/2014 15:06:47 ( 10.01, 157.19)
13 04/05/2014 02:14:51 ( 19.04, 165.59) 04/05/2014 02:15:53 ( 22.67, 164.69)
14 04/05/2014 03:53:48 ( 10.05, 142.33) 04/05/2014 03:57:10 ( 21.91, 139.50)
15 04/05/2014 14:44:12 ( 22.68, 164.98) 04/05/2014 14:47:47 ( 10.01, 161.95)
16 04/05/2014 16:25:41 ( 22.69, 139.60) 04/05/2014 16:25:47 ( 22.34, 139.51)
17 04/06/2014 03:34:48 ( 10.05, 147.08) 04/06/2014 03:38:23 ( 22.67, 144.07)
18 04/06/2014 16:06:42 ( 22.68, 144.36) 04/06/2014 16:10:18 ( 10.01, 141.33)
19 04/07/2014 03:15:49 ( 10.06, 151.83) 04/07/2014 03:19:24 ( 22.68, 148.82)
20 04/07/2014 15:47:43 ( 22.68, 149.11) 04/07/2014 15:51:19 ( 10.00, 146.08)
21 04/08/2014 02:56:48 ( 10.01, 156.60) 04/08/2014 03:00:24 ( 22.68, 153.57)
22 04/08/2014 15:28:43 ( 22.67, 153.86) 04/08/2014 15:32:18 ( 10.05, 150.85)
23
